SCP
0 -0 -0 0 0 0 0 0 0 0 0 0 0 0 0 0 0 0 0 0 0 0 0 0 0 0 0 0 0 0 0 0 0 0 0 0 0 0
-0 -0 -0 0 -0 0 0 0 0 0 0 0 0 0 0 0 0 0 0 0 0 0 0 0 0 0 0 0 0 0 0 0 0 0 0 0 0 0
-0 -0 -0 0 -0 -0 0 0 0 0 0 0 0 0 0 0 0 0 0 0 0 0 0 0 0 0 0 0 0 0 0 0 0 0 0 0 0 0
-0 -0 -0 0 0 0 0 0 0 0 0 0 0 0 0 0 0 0 0 0 0 0 0 0 0 0 0 0 0 0 0 0 0 0 0 0 0 0
0 0 0 0 0 0 0 0 0 0 0 0 0 0 0 0 0 0 0 0 0 0 0 0 0 0 0 0 0 0 0 0 0 0 0 0 0 0
0 0 0 0 0 0 0 0 0 0 0 0 0 0 0 0 0 0 0 0 0 0 0 0 0 0 0 0 0 0 0 0 0 0 0 0 0 0
0 0 0 0 0 0 0 0 0 0 0 0 0 0 0 0 0 0 0 -0 0 0 0 0 0 0 0 0 0 0 0 0 0 0 0 0 0 0
0 0 0 0 0 0 0 0 0 0 0 0 0 0 0 0 0 0 -0 0 -0 0 0 0 0 0 0 0 0 0 0 0 0 0 0 0 0 0
0 0 0 0 0 0 0 0 0 0 0 0 0 0 0 0 0 -0 0 -0 0 0 0 0 0 0 0 0 0 0 0 0 0 0 0 0 0 0
0 0 0 0 0 0 0 0 0 0 0 0 0 0 0 0 0 0 0 0 0 0 0 0 0 0 -0 0 0 0 0 0 0 0 0 0 0 0
0 0 0 0 0 0 0 0 0 0 0 0 0 0 0 0 0 0 0 0 0 0 0 0 0 0 0 0 0 -0 -0 0 0 0 0 0 0 0
0 0 0 0 0 0 0 0 0 0 0 0 0 0 0 0 0 0 0 0 0 0 0 0 0 0 0 0 0 -0 -0 -0 -0 -0 0 0 0 0
0 0 0 0 0 0 0 0 0 0 0 0 0 0 -0 -0 0 0 0 0 0 0 0 0 0 0 0 0 0 -0 -0 0 0 -0 0 0 0 0
0 0 0 0 0 0 0 0 0 0 0 0 0 -0 -0 -0 0 0 0 0 0 0 -0 0 0 0 0 0 0 0 0 0 0 0 0 0 0 0
0 0 0 0 0 0 0 0 0 0 0 0 0 -0 -0 0 0 0 0 0 0 0 0 0 0 0 0 0 0 0 0 0 0 0 0 0 0 0
0 0 0 0 0 0 0 0 -0 -0 0 0 -0 -0 -0 -0 -0 0 0 0 -0 -0 -0 0 0 0 0 0 0 0 0 0 0 0 0 0 0 -0
0 0 0 0 0 0 0 0 0 -0 -0 0 -0 -0 -0 -0 -0 0 0 0 0 0 -0 -0 0 0 0 0 0 0 0 0 0 0 0 0 0 0
0 0 0 0 0 0 0 0 -0 0 0 0 -0 -0 -0 -0 0 -0 -0 -0 0 -0 -0 -0 -0 -0 -0 0 0 0 0 0 0 0 0 0 0 0
0 0 0 0 0 0 0 -0 -0 0 0 0 -0 -0 -0 -0 -0 -0 0 -0 -0 -0 -0 -0 -0 0 -0 -0 0 0 0 0 0 0 0 0 0 0
0 0 0 0 0 0 -0 -0 -0 -0 0 0 -0 -0 -0 -0 -0 -0 -0 -0 -0 0 -0 0 -0 -0 -0 -0 0 -0 0 0 0 0 0 0 0 0
0 0 0 0 0 -0 -0 -0 0 0 0 -0 -0 -0 -0 -0 -0 -0 -0 -0 0 0 0 0 -0 0 0 0 0 -0 0 0 0 0 0 0 -0 -0
0 0 0 0 0 0 0 0 0 0 -0 -0 -0 -0 -0 -0 -0 -0 -0 0 0 -0 -0 -0 -0 0 0 0 0 0 0 0 0 0 0 0 -0 -0
0 0 0 0 0 0 0 0 -0 -0 -0 -0 -0 -0 -0 -0 -0 -0 -0 -0 -0 -0 -0 -0 -0 -0 0 0 0 0 0 0 0 0 0 0 0 0
Wind_Speed_500mb
8 14 14 16 15 16 17 18 20 26 25 21 28 23 29 31 34 32 32 37 44 43 45 43 43 45 52 58 60 59 57 52 48 44 44 44 43 39
9 14 17 18 16 20 20 20 22 24 31 33 31 33 30 38 31 38 36 44 41 47 52 57 62 60 59 60 60 58 59 58 57 54 52 50 47 45
12 14 17 19 18 19 22 24 29 31 39 42 37 36 41 36 37 37 36 40 38 42 49 59 69 73 63 61 62 64 61 58 56 57 56 55 53 49
12 15 17 18 22 25 29 31 36 34 37 41 39 40 38 33 40 40 44 41 45 49 61 57 52 54 53 54 44 52 57 58 54 55 58 56 56 55
17 20 23 27 30 34 37 36 35 36 38 42 42 37 45 44 37 42 41 46 45 50 52 47 40 50 50 39 42 45 46 48 49 50 50 52 56 53
25 26 28 31 34 40 39 39 42 44 42 42 46 39 47 39 35 40 44 50 55 46 42 39 44 39 42 38 31 33 36 41 42 45 47 47 49 53
32 35 35 37 46 45 44 41 41 41 46 48 48 45 45 43 42 43 48 56 50 40 40 41 36 35 31 26 23 31 31 35 41 45 47 48 48 47
37 36 37 36 30 42 38 38 34 35 39 40 43 50 47 41 39 48 51 48 54 35 42 39 31 32 27 25 27 28 34 26 27 32 37 39 41 44
38 33 30 34 37 30 28 34 39 41 39 36 37 44 44 38 44 51 43 42 41 37 37 41 30 28 29 28 28 28 19 21 26 28 26 28 31 36
32 24 28 30 29 33 27 37 41 35 34 35 38 39 41 44 37 37 39 35 35 33 33 32 23 29 33 26 27 20 16 26 33 32 30 25 26 29
23 20 29 19 30 29 38 41 36 30 27 40 40 45 40 35 32 31 27 30 34 34 36 26 23 41 26 19 16 14 36 39 38 35 27 27 22 21
23 23 25 28 31 39 44 35 30 32 36 30 27 30 28 28 30 33 35 34 38 43 27 40 42 34 28 7 19 28 23 32 36 40 35 30 32 28
23 23 26 36 42 47 40 24 35 38 21 24 25 25 23 25 26 31 33 34 35 38 33 31 42 37 33 42 42 37 33 38 29 20 26 27 38 40
21 21 25 40 41 34 24 33 29 21 20 21 27 28 33 32 30 25 33 33 35 36 29 26 38 32 40 48 52 47 38 37 28 20 18 23 25 30
17 25 35 31 34 26 35 22 17 19 20 22 36 31 27 36 35 31 34 35 36 36 34 32 36 31 36 46 51 46 46 37 32 19 25 22 23 23
27 22 24 22 22 27 25 24 20 22 24 29 29 32 29 31 29 29 32 32 39 29 28 28 28 32 29 32 29 32 26 23 35 26 25 28 27 22
13 17 19 25 22 24 25 28 27 32 20 26 28 30 30 32 31 33 30 38 34 34 32 29 24 25 28 26 24 26 29 26 26 25 29 31 24 24
13 20 24 25 24 24 31 36 24 38 31 27 31 30 34 34 35 35 31 29 33 33 33 31 33 27 28 25 19 22 25 23 25 24 28 23 21 16
17 22 25 24 27 28 30 28 31 31 30 23 27 32 36 33 36 39 39 37 37 37 38 36 32 29 28 29 23 27 28 23 25 24 24 19 20 19
21 25 26 27 29 27 29 28 31 45 24 28 30 33 33 35 38 41 41 42 43 44 45 42 41 31 32 32 28 30 30 25 28 24 26 22 18 16
22 26 25 28 32 31 30 29 39 38 28 30 31 34 37 39 42 42 46 49 44 41 44 45 43 48 41 31 30 28 33 13 28 18 23 18 15 8
23 26 25 28 38 41 37 30 31 41 34 32 35 39 39 41 43 46 48 49 46 46 47 44 41 35 33 32 25 24 24 13 32 19 21 19 13 11
24 25 26 27 33 39 35 36 34 34 37 38 40 42 41 44 45 46 49 45 47 46 43 43 42 39 31 17 27 24 18 16 14 14 16 29 12 12
Wind_Direction_500mb
28 12 13 2 357 358 355 354 351 342 335 335 331 321 316 313 311 320 322 307 313 317 313 304 294 284 277 276 277 277 277 275 269 266 266 267 272 278
357 346 346 336 340 333 332 332 330 322 317 323 321 319 312 311 312 315 313 325 318 310 311 306 297 288 283 279 277 276 272 269 268 268 265 263 267 273
344 338 339 336 335 335 329 322 317 312 309 312 315 312 313 307 306 301 309 315 309 303 296 291 288 294 291 281 269 269 270 268 263 263 263 264 265 265
322 325 332 328 324 322 320 315 312 304 300 305 310 315 312 314 313 307 311 305 310 310 303 300 293 296 293 293 276 267 268 268 266 262 259 262 264 265
297 303 305 313 312 316 307 309 314 310 305 300 300 305 309 310 309 307 306 312 311 308 312 304 298 293 300 290 276 278 277 272 266 264 264 262 258 257
290 292 298 299 309 308 312 310 314 313 309 307 306 307 310 312 319 312 312 314 316 315 313 310 313 312 310 300 293 293 289 280 271 266 265 265 264 259
294 296 298 295 305 309 304 300 309 311 312 306 306 308 311 316 309 312 311 315 316 318 315 312 313 311 312 306 290 282 274 286 277 273 271 270 267 260
299 302 307 311 317 310 313 314 322 319 312 306 306 310 310 310 308 314 313 315 316 321 318 316 315 311 314 305 299 295 294 276 294 292 277 270 267 255
297 306 319 313 317 314 313 322 318 318 315 309 315 310 311 312 313 311 311 310 310 316 316 313 318 315 313 307 304 314 296 292 302 305 295 279 270 258
300 308 314 313 304 319 323 322 316 313 306 306 308 309 307 306 309 307 310 318 316 315 319 310 316 315 319 310 304 302 283 306 303 292 290 285 290 260
296 301 311 323 309 319 330 323 319 317 320 316 320 316 319 319 320 320 315 311 315 316 328 301 314 319 327 315 300 320 317 307 295 293 284 275 280 275
301 304 311 322 324 326 328 324 317 319 317 316 317 321 321 323 330 326 318 313 317 313 332 312 320 326 322 306 309 314 312 297 297 280 273 264 268 269
310 311 307 317 327 327 329 319 317 322 321 324 323 330 324 317 318 307 309 321 319 308 324 310 308 313 298 304 318 330 323 331 315 311 264 276 270 266
318 314 315 323 334 343 326 320 328 342 327 324 333 326 338 341 333 328 329 328 327 317 327 313 284 294 299 303 305 320 326 329 319 302 296 286 285 277
328 330 337 359 356 343 332 346 356 339 330 325 326 332 322 331 336 333 330 335 325 327 306 316 315 296 296 301 299 307 306 305 312 290 298 296 293 291
329 326 335 352 345 348 359 352 336 330 330 327 329 338 327 329 324 318 327 327 333 328 321 323 302 303 303 308 308 304 315 294 311 303 306 292 292 269
360 342 338 338 338 347 351 348 3 349 334 332 330 332 334 334 329 335 329 339 328 321 323 326 308 306 307 304 310 315 323 317 312 308 305 305 285 285
16 340 343 340 340 330 345 348 358 342 338 341 338 331 334 330 333 332 326 323 326 334 323 314 318 319 311 306 291 321 321 320 324 312 311 312 289 299
356 349 346 348 340 333 345 343 337 333 343 348 332 339 337 334 330 329 327 326 324 325 321 322 309 324 315 314 315 308 310 319 326 324 323 312 305 303
351 348 345 344 339 337 340 336 333 332 348 352 340 337 332 327 329 331 328 323 318 316 316 317 314 314 312 307 307 320 321 292 322 325 320 294 310 318
347 346 344 336 341 339 340 336 344 353 351 338 335 335 332 329 330 330 328 324 324 320 316 316 318 311 309 301 294 327 329 279 326 320 330 317 315 312
343 342 342 335 332 342 347 343 332 347 346 334 330 330 327 326 326 326 329 327 324 320 316 314 315 311 313 315 314 318 326 309 321 321 312 322 281 301
341 340 341 337 331 341 349 346 341 334 335 333 329 325 322 324 326 326 326 326 324 322 322 319 315 319 326 338 327 321 319 319 322 312 308 324 265 297
Wind_Speed_850mb
8 14 14 16 15 16 17 18 20 26 25 21 28 23 29 31 34 32 32 37 44 43 45 43 43 45 52 58 60 59 57 52 48 44 44 44 43 39
9 14 17 18 16 20 20 20 22 24 31 33 31 33 30 38 31 38 36 44 41 47 52 57 62 60 59 60 60 58 59 58 57 54 52 50 47 45
12 14 17 19 18 19 22 24 29 31 39 42 37 36 41 36 37 37 36 40 38 42 49 59 69 73 63 61 62 64 61 58 56 57 56 55 53 49
12 15 17 18 22 25 29 31 36 34 37 41 39 40 38 33 40 40 44 41 45 49 61 57 52 54 53 54 44 52 57 58 54 55 58 56 56 55
17 20 23 27 30 34 37 36 35 36 38 42 42 37 45 44 37 42 41 46 45 50 52 47 40 50 50 39 42 45 46 48 49 50 50 52 56 53
25 26 28 31 34 40 39 39 42 44 42 42 46 39 47 39 35 40 44 50 55 46 42 39 44 39 42 38 31 33 36 41 42 45 47 47 49 53
32 35 35 37 46 45 44 41 41 41 46 48 48 45 45 43 42 43 48 56 50 40 40 41 36 35 31 26 23 31 31 35 41 45 47 48 48 47
37 36 37 36 30 42 38 38 34 35 39 40 43 50 47 41 39 48 51 48 54 35 42 39 31 32 27 25 27 28 34 26 27 32 37 39 41 44
38 33 30 34 37 30 28 34 39 41 39 36 37 44 44 38 44 51 43 42 41 37 37 41 30 28 29 28 28 28 19 21 26 28 26 28 31 36
32 24 28 30 29 33 27 37 41 35 34 35 38 39 41 44 37 37 39 35 35 33 33 32 23 29 33 26 27 20 16 26 33 32 30 25 26 29
23 20 29 19 30 29 38 41 36 30 27 40 40 45 40 35 32 31 27 30 34 34 36 26 23 41 26 19 16 14 36 39 38 35 27 27 22 21
23 23 25 28 31 39 44 35 30 32 36 30 27 30 28 28 30 33 35 34 38 43 27 40 42 34 28 7 19 28 23 32 36 40 35 30 32 28
23 23 26 36 42 47 40 24 35 38 21 24 25 25 23 25 26 31 33 34 35 38 33 31 42 37 33 42 42 37 33 38 29 20 26 27 38 40
21 21 25 40 41 34 24 33 29 21 20 21 27 28 33 32 30 25 33 33 35 36 29 26 38 32 40 48 52 47 38 37 28 20 18 23 25 30
17 25 35 31 34 26 35 22 17 19 20 22 36 31 27 36 35 31 34 35 36 36 34 32 36 31 36 46 51 46 46 37 32 19 25 22 23 23
27 22 24 22 22 27 25 24 20 22 24 29 29 32 29 31 29 29 32 32 39 29 28 28 28 32 29 32 29 32 26 23 35 26 25 28 27 22
13 17 19 25 22 24 25 28 27 32 20 26 28 30 30 32 31 33 30 38 34 34 32 29 24 25 28 26 24 26 29 26 26 25 29 31 24 24
13 20 24 25 24 24 31 36 24 38 31 27 31 30 34 34 35 35 31 29 33 33 33 31 33 27 28 25 19 22 25 23 25 24 28 23 21 16
17 22 25 24 27 28 30 28 31 31 30 23 27 32 36 33 36 39 39 37 37 37 38 36 32 29 28 29 23 27 28 23 25 24 24 19 20 19
21 25 26 27 29 27 29 28 31 45 24 28 30 33 33 35 38 41 41 42 43 44 45 42 41 31 32 32 28 30 30 25 28 24 26 22 18 16
22 26 25 28 32 31 30 29 39 38 28 30 31 34 37 39 42 42 46 49 44 41 44 45 43 48 41 31 30 28 33 13 28 18 23 18 15 8
23 26 25 28 38 41 37 30 31 41 34 32 35 39 39 41 43 46 48 49 46 46 47 44 41 35 33 32 25 24 24 13 32 19 21 19 13 11
24 25 26 27 33 39 35 36 34 34 37 38 40 42 41 44 45 46 49 45 47 46 43 43 42 39 31 17 27 24 18 16 14 14 16 29 12 12
Wind_Direction_850mb
28 12 13 2 357 358 355 354 351 342 335 335 331 321 316 313 311 320 322 307 313 317 313 304 294 284 277 276 277 277 277 275 269 266 266 267 272 278
357 346 346 336 340 333 332 332 330 322 317 323 321 319 312 311 312 315 313 325 318 310 311 306 297 288 283 279 277 276 272 269 268 268 265 263 267 273
344 338 339 336 335 335 329 322 317 312 309 312 315 312 313 307 306 301 309 315 309 303 296 291 288 294 291 281 269 269 270 268 263 263 263 264 265 265
322 325 332 328 324 322 320 315 312 304 300 305 310 315 312 314 313 307 311 305 310 310 303 300 293 296 293 293 276 267 268 268 266 262 259 262 264 265
297 303 305 313 312 316 307 309 314 310 305 300 300 305 309 310 309 307 306 312 311 308 312 304 298 293 300 290 276 278 277 272 266 264 264 262 258 257
290 292 298 299 309 308 312 310 314 313 309 307 306 307 310 312 319 312 312 314 316 315 313 310 313 312 310 300 293 293 289 280 271 266 265 265 264 259
294 296 298 295 305 309 304 300 309 311 312 306 306 308 311 316 309 312 311 315 316 318 315 312 313 311 312 306 290 282 274 286 277 273 271 270 267 260
299 302 307 311 317 310 313 314 322 319 312 306 306 310 310 310 308 314 313 315 316 321 318 316 315 311 314 305 299 295 294 276 294 292 277 270 267 255
297 306 319 313 317 314 313 322 318 318 315 309 315 310 311 312 313 311 311 310 310 316 316 313 318 315 313 307 304 314 296 292 302 305 295 279 270 258
300 308 314 313 304 319 323 322 316 313 306 306 308 309 307 306 309 307 310 318 316 315 319 310 316 315 319 310 304 302 283 306 303 292 290 285 290 260
296 301 311 323 309 319 330 323 319 317 320 316 320 316 319 319 320 320 315 311 315 316 328 301 314 319 327 315 300 320 317 307 295 293 284 275 280 275
301 304 311 322 324 326 328 324 317 319 317 316 317 321 321 323 330 326 318 313 317 313 332 312 320 326 322 306 309 314 312 297 297 280 273 264 268 269
310 311 307 317 327 327 329 319 317 322 321 324 323 330 324 317 318 307 309 321 319 308 324 310 308 313 298 304 318 330 323 331 315 311 264 276 270 266
318 314 315 323 334 343 326 320 328 342 327 324 333 326 338 341 333 328 329 328 327 317 327 313 284 294 299 303 305 320 326 329 319 302 296 286 285 277
328 330 337 359 356 343 332 346 356 339 330 325 326 332 322 331 336 333 330 335 325 327 306 316 315 296 296 301 299 307 306 305 312 290 298 296 293 291
329 326 335 352 345 348 359 352 336 330 330 327 329 338 327 329 324 318 327 327 333 328 321 323 302 303 303 308 308 304 315 294 311 303 306 292 292 269
360 342 338 338 338 347 351 348 3 349 334 332 330 332 334 334 329 335 329 339 328 321 323 326 308 306 307 304 310 315 323 317 312 308 305 305 285 285
16 340 343 340 340 330 345 348 358 342 338 341 338 331 334 330 333 332 326 323 326 334 323 314 318 319 311 306 291 321 321 320 324 312 311 312 289 299
356 349 346 348 340 333 345 343 337 333 343 348 332 339 337 334 330 329 327 326 324 325 321 322 309 324 315 314 315 308 310 319 326 324 323 312 305 303
351 348 345 344 339 337 340 336 333 332 348 352 340 337 332 327 329 331 328 323 318 316 316 317 314 314 312 307 307 320 321 292 322 325 320 294 310 318
347 346 344 336 341 339 340 336 344 353 351 338 335 335 332 329 330 330 328 324 324 320 316 316 318 311 309 301 294 327 329 279 326 320 330 317 315 312
343 342 342 335 332 342 347 343 332 347 346 334 330 330 327 326 326 326 329 327 324 320 316 314 315 311 313 315 314 318 326 309 321 321 312 322 281 301
341 340 341 337 331 341 349 346 341 334 335 333 329 325 322 324 326 326 326 326 324 322 322 319 315 319 326 338 327 321 319 319 322 312 308 324 265 297